DL2ZZM-13 Weather Reports


time (UTC)temp
C
wind
direction
speed
KPH
gust
KPH
rain 1hr
cm
rain 24hr
cm
rain mn
cm
humidity
%
barometer
mb
20260506092316 14 0.0 0.0 0.00 0.25 0.03 77 1008.1
20260506091316 14 180 1.6 3.2 0.00 0.25 0.03 78 1007.9
20260506090336 14 0.0 1.6 0.00 0.25 0.03 79 1007.9
20260506085316 13 180 1.6 3.2 0.00 0.25 0.03 80 1008.0
20260506084316 13 180 1.6 3.2 0.00 0.25 0.03 80 1008.1
20260506083316 13 0.0 0.0 0.00 0.25 0.03 81 1008.1
20260506082316 13 0.0 1.6 0.00 0.25 0.03 81 1008.2
20260506081316 13 180 1.6 3.2 0.00 0.25 0.03 83 1008.3
20260506080316 13 0.0 0.0 0.00 0.25 0.03 81 1008.4
20260506073316 13 203 4.8 4.8 0.00 0.25 0.03 80 1008.3
20260506072316 14 225 4.8 6.4 0.00 0.25 0.03 81 1008.4
20260506071316 13 180 3.2 8.0 0.00 0.25 0.03 84 1008.3
20260506070316 12 180 3.2 6.4 0.00 0.25 0.03 89 1008.2
20260506062356 10 0.0 0.0 0.00 0.25 0.03 95 1008.1
20260506061316 9 0.0 0.0 0.00 0.25 0.03 95 1008.1
20260506060316 9 0.0 0.0 0.00 0.25 0.03 95 1008.2
20260506051316 7 0.0 0.0 0.00 0.25 0.03 95 1008.4
20260506050316 7 0.0 0.0 0.00 0.25 0.03 94 1008.4
20260506044315 7 0.0 0.0 0.00 0.25 0.03 94 1008.6
20260506043336 6 0.0 0.0 0.00 0.25 0.03 94 1008.8
20260506042315 6 0.0 0.0 0.00 0.25 0.03 94 1008.7
20260506041315 6 0.0 0.0 0.00 0.25 0.03 94 1008.7
20260506040316 6 0.0 0.0 0.00 0.25 0.03 94 1008.6
20260506035316 6 0.0 0.0 0.00 0.25 0.03 94 1008.7
20260506034316 6 0.0 0.0 0.00 0.25 0.03 94 1008.6
20260506033315 6 0.0 0.0 0.03 0.25 0.03 93 1008.8
20260506032315 6 0.0 0.0 0.03 0.25 0.03 93 1008.9
20260506031316 6 0.0 0.0 0.03 0.25 0.03 93 1008.9
20260506030315 6 0.0 0.0 0.03 0.25 0.03 93 1008.9
20260506025315 6 0.0 0.0 0.03 0.25 0.03 93 1008.9
20260506024455 7 0.0 0.0 0.03 0.25 0.03 93 1008.8
20260506023315 7 0.0 0.0 0.00 0.23 0.00 94 1008.8
20260506022315 7 0.0 0.0 0.00 0.23 0.00 93 1008.8
20260506021315 7 0.0 0.0 0.00 0.23 0.00 93 1009.0
20260506020315 7 0.0 0.0 0.00 0.23 0.00 94 1009.1
20260506015315 7 0.0 0.0 0.00 0.23 0.00 93 1009.2
20260506014315 7 0.0 0.0 0.00 0.23 0.00 93 1009.4
20260506013315 7 0.0 0.0 0.00 0.23 0.00 93 1009.4
20260506012315 7 0.0 0.0 0.00 0.23 0.00 93 1009.2
20260506011315 7 0.0 0.0 0.00 0.23 0.00 93 1009.0
20260506010337 7 270 3.2 4.8 0.00 0.23 0.00 93 1008.9
20260506005317 7 270 3.2 4.8 0.00 0.23 0.00 93 1009.1
20260506004317 7 270 3.2 4.8 0.00 0.23 0.00 93 1009.0
20260506003317 8 248 3.2 4.8 0.00 0.23 0.00 92 1009.2
20260506002337 8 0.0 0.0 0.00 0.23 0.00 93 1009.4
20260506001317 8 0.0 0.0 0.00 0.23 0.00 92 1009.6
20260506000317 8 225 4.8 6.4 0.00 0.23 0.00 92 1009.8
20260505235317 8 248 3.2 4.8 0.00 0.23 0.00 92 1009.8
20260505234317 8 248 3.2 4.8 0.00 0.23 0.00 92 1009.9
20260505233317 8 248 6.4 8.0 0.00 0.23 0.00 92 1010.0
20260505232317 8 225 3.2 4.8 0.00 0.23 0.00 92 1010.0
20260505231317 8 225 1.6 3.2 0.00 0.23 0.00 92 1010.0
20260505230337 9 0.0 0.0 0.00 0.23 0.00 91 1010.1
20260505225317 9 225 1.6 3.2 0.00 0.23 0.00 91 1010.1
20260505224317 9 0.0 0.0 0.00 0.23 0.00 91 1010.2
20260505223317 9 0.0 0.0 0.00 0.23 0.00 91 1010.1
20260505222437 9 225 3.2 4.8 0.00 0.23 0.00 91 1010.1
20260505221317 10 225 6.4 8.0 0.00 0.23 0.00 91 1010.1
20260505220317 10 225 8.0 11.3 0.00 0.23 0.00 91 1009.9
20260505215316 10 248 9.7 16.1 0.00 0.25 0.23 91 1009.9
20260505214336 10 225 6.4 8.0 0.00 0.25 0.23 91 1009.8
20260505213316 10 248 8.0 12.9 0.00 0.25 0.23 91 1010.0
20260505212356 10 225 6.4 9.7 0.00 0.25 0.23 91 1010.0
20260505211316 10 225 6.4 9.7 0.00 0.25 0.23 91 1010.0
20260505210316 10 203 6.4 9.7 0.00 0.25 0.23 91 1010.3
20260505205316 10 203 8.0 12.9 0.00 0.30 0.23 91 1010.1
20260505204316 11 225 6.4 8.0 0.00 0.30 0.23 91 1010.0
20260505203315 11 203 6.4 9.7 0.00 0.30 0.23 91 1009.9
20260505202316 11 203 8.0 11.3 0.00 0.30 0.23 91 1009.9
20260505201315 11 225 8.0 12.9 0.00 0.30 0.23 91 1009.7
20260505200315 11 225 4.8 8.0 0.03 0.30 0.23 90 1009.5
20260505195315 11 225 3.2 6.4 0.03 0.30 0.23 90 1009.4
20260505193316 11 203 4.8 6.4 0.03 0.30 0.23 89 1009.2
20260505192315 11 225 3.2 4.8 0.03 0.30 0.23 89 1009.2
20260505191315 11 270 3.2 6.4 0.03 0.30 0.23 88 1009.3
20260505190315 12 248 3.2 4.8 0.00 0.28 0.23 87 1009.4
20260505185315 12 248 4.8 6.4 0.00 0.28 0.23 86 1009.5
20260505184335 12 293 4.8 11.3 0.00 0.28 0.23 85 1009.2
20260505183315 12 270 8.0 12.9 0.00 0.28 0.23 85 1009.3
20260505182315 12 293 4.8 6.4 0.00 0.28 0.23 85 1009.4
20260505181315 12 270 4.8 11.3 0.00 0.28 0.23 85 1009.2
20260505180315 13 293 4.8 6.4 0.00 0.28 0.23 85 1009.1
20260505175335 13 270 3.2 4.8 0.00 0.28 0.23 84 1009.0
20260505174335 13 270 4.8 6.4 0.00 0.28 0.23 84 1008.9
20260505173315 13 293 3.2 6.4 0.00 0.28 0.23 83 1008.9
20260505172315 13 225 6.4 8.0 0.00 0.28 0.23 83 1008.8
20260505171315 14 293 4.8 8.0 0.00 0.28 0.23 84 1008.8
20260505165335 13 270 1.6 1.6 0.00 0.28 0.23 84 1008.7
20260505164317 13 270 3.2 4.8 0.00 0.28 0.23 85 1008.8
20260505163317 13 338 1.6 4.8 0.00 0.28 0.23 86 1008.9
20260505162337 13 23 1.6 4.8 0.00 0.28 0.23 86 1008.9
20260505161317 13 315 3.2 3.2 0.00 0.28 0.23 87 1008.9
20260505160317 12 0 6.4 8.0 0.00 0.28 0.23 89 1008.9
20260505153317 12 315 3.2 6.4 0.00 0.28 0.23 90 1009.4
20260505152317 12 293 4.8 8.0 0.00 0.28 0.23 90 1009.3
20260505151317 12 338 4.8 9.7 0.00 0.28 0.23 90 1009.2
20260505150417 12 293 8.0 11.3 0.00 0.28 0.23 90 1009.3
20260505140317 13 248 6.4 11.3 0.23 0.28 0.23 89 1009.9
20260505124317 17 338 3.2 4.8 0.00 0.05 0.00 68 1009.4
20260505123317 17 338 1.6 1.6 0.00 0.05 0.00 68 1009.4
20260505122336 17 315 3.2 4.8 0.00 0.05 0.00 69 1009.4
20260505121317 17 338 6.4 8.0 0.00 0.05 0.00 67 1009.4
20260505120337 18 0 6.4 9.7 0.00 0.05 0.00 67 1009.3
20260505115316 18 0 3.2 6.4 0.00 0.05 0.00 67 1009.3
20260505114317 18 23 1.6 6.4 0.00 0.05 0.00 67 1009.2
20260505113316 18 0.0 0.0 0.00 0.05 0.00 66 1009.1
20260505112316 18 315 3.2 4.8 0.00 0.05 0.00 65 1009.0
20260505111317 18 225 3.2 4.8 0.00 0.05 0.00 66 1009.1
20260505110316 18 315 4.8 6.4 0.00 0.05 0.00 65 1009.2
20260505101316 20 203 1.6 3.2 0.00 0.05 0.00 62 1009.6
20260505100316 19 293 6.4 8.0 0.00 0.05 0.00 62 1009.7
20260505095336 18 90 1.6 3.2 0.00 0.05 0.00 64 1009.7
20260505094316 18 293 3.2 3.2 0.00 0.05 0.00 66 1009.9
20260505093316 18 293 3.2 4.8 0.00 0.05 0.00 66 1009.9